Rygge, Norway

2:06 PM CEST on September 22, 2017 (GMT +0200)
Rygge Air Base

Weather History for ENRY - April, 2013

Change the Weather History Date:

Wednesday, April 3, 2013

  Actual Average Record
Temperature  
Mean Temperature 34 °F -  
Max Temperature 44 °F 48 °F 53 °F (1999)
Min Temperature 25 °F 36 °F 24 °F (1998)
Degree Days  
Heating Degree Days 30    
Moisture  
Dew Point 16 °F    
Average Humidity 47    
Maximum Humidity 74    
Minimum Humidity 16    
Precipitation  
Precipitation 0.00 in - - ()
Sea Level Pressure  
Sea Level Pressure 30.28 in    
Wind  
Wind Speed 4 mph ()    
Max Wind Speed 10 mph    
Max Gust Speed -    
Visibility 6.2 miles    
Events      
Averages and records for this station are not official NWS values.
T = Trace of Precipitation, MM = Missing Value Source: Averaged Metar Reports

Daily Weather History Graph

Daily Weather History Graph

Search for Another Location

Airport or City:

Trip Planner

Search our weather history database for the weather conditions in past years. The results will help you decide how hot, cold, wet, or windy it might be!

Date:

Astronomy

Apr. 03, 2013 Rise Set
Actual Time 6:36 AM CEST 8:04 PM CEST
Civil Twilight 5:54 AM CEST 8:47 PM CEST
Nautical Twilight 5:01 AM CEST 9:40 PM CEST
Astronomical Twilight 3:59 AM CEST 10:43 PM CEST
Moon 3:40 AM CEST (4/3) 11:23 AM CEST (4/3)
Length of Visible Light 14h 52m
Length of Day
13h 27m
Waning Gibbous, 47% of the Moon is Illuminated
Apr 3
Waning Gibbous
Apr 10
New
Apr 18
First Quarter
Apr 25
Full
May 2
Last Quarter

Hourly Weather History & Observations

Time (CEST) Temp. Windchill Dew Point Humidity Pressure Visibility Wind Dir Wind Speed Gust Speed Precip Events Conditions
12:20 AM 30.2 °F 25.4 °F 15.8 °F 55% 30.24 in - NE 4.6 mph - N/A   Clear
12:50 AM 28.4 °F 23.3 °F 15.8 °F 59% 30.24 in - NNE 4.6 mph - N/A   Clear
1:20 AM 28.4 °F 24.6 °F 17.6 °F 64% 30.24 in 6.2 mi North 3.5 mph - N/A   Unknown
1:50 AM 28.4 °F 24.6 °F 15.8 °F 59% 30.27 in 6.2 mi North 3.5 mph - N/A   Unknown
2:00 AM 28 °F - 18 °F 54% 30.28 in 31 mi North 2.2 mph - -   Clear
2:20 AM 26.6 °F 21.2 °F 15.8 °F 64% 30.27 in 6.2 mi North 4.6 mph - N/A   Unknown
2:50 AM 26.6 °F 22.6 °F 15.8 °F 64% 30.27 in 6.2 mi NNE 3.5 mph - N/A   Unknown
3:20 AM 26.6 °F - 15.8 °F 64% 30.27 in 6.2 mi Variable 2.3 mph - N/A   Unknown
3:50 AM 26.6 °F - 15.8 °F 64% 30.27 in 6.2 mi Variable 2.3 mph - N/A   Unknown
4:20 AM 26.6 °F 22.6 °F 15.8 °F 64% 30.27 in 6.2 mi North 3.5 mph - N/A   Unknown
4:50 AM 26.6 °F 22.6 °F 15.8 °F 64% 30.27 in 6.2 mi North 3.5 mph - N/A   Unknown
5:20 AM 24.8 °F 19.1 °F 15.8 °F 69% 30.30 in 6.2 mi North 4.6 mph - N/A   Unknown
5:50 AM 24.8 °F 19.1 °F 15.8 °F 69% 30.30 in - North 4.6 mph - N/A   Clear
6:20 AM 26.6 °F 21.2 °F 15.8 °F 64% 30.30 in - North 4.6 mph - N/A   Clear
6:50 AM 24.8 °F 19.1 °F 15.8 °F 69% 30.30 in - North 4.6 mph - N/A   Clear
7:20 AM 24.8 °F 17.9 °F 17.6 °F 74% 30.30 in - NNW 5.8 mph - N/A   Clear
7:50 AM 26.6 °F 21.2 °F 17.6 °F 69% 30.30 in - North 4.6 mph - N/A   Clear
8:00 AM 28 °F - 20 °F 62% 30.32 in 22 mi North 4.5 mph - -   Partly Cloudy
8:20 AM 28.4 °F 23.3 °F 19.4 °F 69% 30.30 in - North 4.6 mph - N/A   Clear
8:50 AM 30.2 °F 23.4 °F 19.4 °F 64% 30.30 in - North 6.9 mph - N/A   Clear
9:20 AM 33.8 °F 28.6 °F 19.4 °F 56% 30.30 in - North 5.8 mph - N/A   Clear
9:50 AM 33.8 °F 28.6 °F 19.4 °F 56% 30.33 in - North 5.8 mph - N/A   Clear
10:20 AM 37.4 °F 34.9 °F 19.4 °F 48% 30.33 in - NNW 3.5 mph - N/A   Clear
10:50 AM 39.2 °F - 19.4 °F 45% 30.33 in - Variable 1.2 mph - N/A   Clear
11:20 AM 39.2 °F - 19.4 °F 45% 30.33 in - Variable 1.2 mph - N/A   Clear
11:50 AM 41.0 °F 37.1 °F 17.6 °F 39% 30.33 in - NW 5.8 mph - N/A   Clear
12:20 PM 42.8 °F 41.1 °F 17.6 °F 36% 30.33 in - NW 3.5 mph - N/A   Clear
1:20 PM 44.6 °F 43.1 °F 17.6 °F 34% 30.30 in - North 3.5 mph - N/A   Clear
1:50 PM 42.8 °F 40.1 °F 14.0 °F 31% 30.30 in - SW 4.6 mph - N/A   Clear
2:00 PM 44 °F - 13 °F 16% 30.32 in 22 mi West 6.7 mph - -   Partly Cloudy
2:20 PM 44.6 °F 40.7 °F 15.8 °F 31% 30.30 in - West 6.9 mph - N/A   Clear
2:50 PM 42.8 °F 37.5 °F 14.0 °F 31% 30.30 in - West 9.2 mph - N/A   Clear
3:20 PM 42.8 °F 38.0 °F 14.0 °F 31% 30.30 in - West 8.1 mph - N/A   Clear
3:50 PM 44.6 °F 39.7 °F 12.2 °F 27% 30.27 in - West 9.2 mph - N/A   Clear
4:20 PM 44.6 °F 39.7 °F 14.0 °F 29% 30.27 in - WSW 9.2 mph - N/A   Clear
4:50 PM 44.6 °F 39.2 °F 14.0 °F 29% 30.27 in - West 10.4 mph - N/A   Clear
5:20 PM 44.6 °F 39.7 °F 14.0 °F 29% 30.27 in - West 9.2 mph - N/A   Clear
5:50 PM 44.6 °F 40.7 °F 14.0 °F 29% 30.27 in - West 6.9 mph - N/A   Clear
6:20 PM 44.6 °F 40.2 °F 14.0 °F 29% 30.24 in - West 8.1 mph - N/A   Clear
6:50 PM 44.6 °F 40.7 °F 14.0 °F 29% 30.24 in - West 6.9 mph - N/A   Clear
7:20 PM 42.8 °F 39.3 °F 12.2 °F 29% 30.24 in - West 5.8 mph - N/A   Clear
7:50 PM 42.8 °F 41.1 °F 12.2 °F 29% 30.24 in - WNW 3.5 mph - N/A   Clear
8:00 PM 42 °F - 12 °F 17% 30.27 in 31 mi WNW 4.5 mph - -   Partly Cloudy
8:20 PM 41.0 °F - 12.2 °F 31% 30.24 in - Calm Calm - N/A   Clear
8:50 PM 41.0 °F 39.0 °F 12.2 °F 31% 30.24 in - West 3.5 mph - N/A   Clear
9:20 PM 37.4 °F - 14.0 °F 38% 30.24 in - Variable 2.3 mph - N/A   Clear
9:50 PM 37.4 °F - 14.0 °F 38% 30.24 in - Calm Calm - N/A   Clear
10:50 PM 33.8 °F 30.8 °F 15.8 °F 48% 30.24 in - ESE 3.5 mph - N/A   Clear
11:20 PM 33.8 °F 30.8 °F 15.8 °F 48% 30.24 in 6.2 mi ESE 3.5 mph - N/A   Unknown
11:50 PM 30.2 °F - 17.6 °F 60% 30.24 in 6.2 mi East 2.3 mph - N/A   Unknown